Torna al catalogo

STARLINK-35871

AttivoComunicazioniVLEO
NORAD 66566·PAYLOAD·🇺🇸 United States

Lanciato Nov 21, 2025 da Cape Canaveral Space Force Station

Loading…

Prossimi Passaggi (prossime 24 ore)

TLE

AggiornatoSource: CelesTrak SupGP

Epoca: Sep 15, 2026, 03:42 UTC

1 66566C 25268K   26258.15465278  .00041013  00000+0  14851-2 0  2580
2 66566  43.0031 356.8278 0001450 270.5420 271.6443 15.27566283    14

Traccia STARLINK-35871 in tempo reale con AllMySat

Download on the App Store